Content
SEND FEEDBACK

Daily
Averages
Monthly
Summary
United States of America

POTTS JUNCTION, GUAM


Home > North America > United States > Guam
Elevation: 110 meters     Latitude: 13 33N     Longitude: 144 50E

WEATHER
 
SELECT A DAY
Number of Records: 208,807;   Date Range: 1/1/95 - 7/7/14
 
SHARE

PRINT THIS DATA

[ ← Previous Day ]
WEATHER ALMANAC - 8 APRIL, 2013
[ Next Day → ]
[ °F ]   °C
Weather ElementAverageHighLow
Temperature28.9 °C31.1 °C (11:54 am)26.1 °C (5:54 am)
Dewpoint21.9 °C22.8 °C (2:54 am)21.1 °C (10:54 am)
Humidity66 %82 % (5:54 am)55 % (11:54 am)
Barometer1011.5 hPa1013.5 hPa (9:18 am)1009.5 hPa (3:54 am)
Wind Speed14 km/h22.2 km/h (12:54 pm)
Wind Gust29.6 km/h (2:54 pm)
Weather ElementAverage
Visibility16.1 km
Wind DirectionE (87.3 °)

Weather ElementTotal
Precipitation---
Cooling Degree Days10.3 (Base 18.3)
Growing Degree Days18.6 (Base 10)
Averaged from 26 records on 8 April, 2013
WEATHER CONDITIONS BREAKOUT
WIND DIRECTION BREAKOUT
WEATHER BY HOUR - 8 APRIL, 2013
[ °F ]   °C
Local TimeTemperatureDewpointHumidityBarometerVisibilityWind DirectionWind SpeedGust SpeedPrecipitationEventsConditions
1:54 AM27.2 °C22.2 °C74 %1010.2 hPa16.1 kmEast (90°)9.3 km/hClear
2:54 AM26.7 °C22.8 °C79 %1009.8 hPa16.1 kmEast (90°)7.4 km/hClear
3:54 AM26.7 °C22.2 °C76 %1009.5 hPa16.1 kmEast (100°)5.6 km/hClear
4:54 AM27.2 °C22.8 °C77 %1010.2 hPa16.1 kmEast (80°)7.4 km/hMostly Cloudy
5:54 AM26.1 °C22.8 °C82 %1010.8 hPa16.1 kmNorth (10°)5.6 km/hOvercast
6:54 AM26.7 °C22.2 °C76 %1011.5 hPa16.1 kmEast (100°)5.6 km/hClear
7:54 AM29.4 °C22.8 °C67 %1012.2 hPa16.1 kmENE (70°)13 km/hMostly Cloudy
8:54 AM28.9 °C21.7 °C65 %1012.9 hPa16.1 kmESE (120°)11.1 km/hMostly Cloudy
9:18 AM29 °C22 °C66 %1013.5 hPa16.1 kmESE (120°)13 km/hMostly Cloudy
9:26 AM30 °C22 °C62 %1013.5 hPa16.1 kmESE (110°)14.8 km/hMostly Cloudy
9:37 AM30 °C22 °C62 %1013.5 hPa16.1 kmEast (80°)16.7 km/hMostly Cloudy
9:54 AM30 °C21.7 °C61 %1012.9 hPa16.1 kmESE (110°)14.8 km/hPartly Cloudy
10:54 AM30.6 °C21.1 °C57 %1012.5 hPa16.1 kmEast (90°)16.7 km/hScattered Clouds
11:54 AM31.1 °C21.1 °C55 %1011.9 hPa16.1 kmESE (110°)18.5 km/hPartly Cloudy
12:54 PM31.1 °C21.7 °C57 %1010.8 hPa16.1 kmEast (100°)22.2 km/h27.8 km/hPartly Cloudy
1:54 PM31.1 °C21.7 °C57 %1010.2 hPa16.1 kmEast (100°)18.5 km/hPartly Cloudy
2:54 PM30.6 °C21.7 °C59 %1009.5 hPa16.1 kmEast (100°)18.5 km/h29.6 km/hPartly Cloudy
3:54 PM31.1 °C21.7 °C57 %1009.5 hPa16.1 kmEast (100°)18.5 km/hPartly Cloudy
4:54 PM30 °C21.7 °C61 %1009.5 hPa16.1 kmEast (90°)13 km/hPartly Cloudy
5:54 PM29.4 °C21.7 °C63 %1010.2 hPa16.1 kmEast (90°)14.8 km/hPartly Cloudy
6:54 PM28.3 °C21.7 °C67 %1010.8 hPa16.1 kmENE (60°)13 km/hPartly Cloudy
7:54 PM28.3 °C22.2 °C69 %1011.5 hPa16.1 kmENE (70°)13 km/hPartly Cloudy
8:54 PM28.3 °C21.1 °C65 %1011.9 hPa16.1 kmENE (70°)20.4 km/hPartly Cloudy
9:54 PM27.8 °C21.1 °C67 %1012.9 hPa16.1 kmENE (70°)20.4 km/hPartly Cloudy
10:54 PM27.8 °C21.7 °C69 %1012.9 hPa16.1 kmEast (80°)14.8 km/hPartly Cloudy
11:54 PM27.8 °C21.1 °C67 %1012.5 hPa16.1 kmENE (60°)14.8 km/hPartly Cloudy
Hourly data recorded from PGUM, located 0 kilometers away from Potts Junction, Guam







STORIES FROM OUR PARTNERS